When you browse on this site, cookies collect data to enhance your experience and personalize the content and advertising you see.
Visit our Privacy Policy to learn more. By continuing to use the site, you agree to this use of cookies and data.
  • In Österreich
  • Länderverzeichnis
  • Für 7 Tage
  • Wassertemperatur
  • Satellitenkarten
  • Wetterkarte
  • News
  • Widgets
  • user-avatar
    Anmelden

    Stündliche Wetter Luanda

    Heute, 17 Februar, Sonntag

    Zeit Temperatur Niederschläge Wind Luftdruck Luftfeuchtigkeit
    00:00 +29°C° 0 mm 3 m/S 755 mmHg 80%
    01:00 +28°C° 0 mm 3 m/S 755 mmHg 80%
    02:00 +28°C° 0 mm 3 m/S 754 mmHg 81%
    03:00 +28°C° 0 mm 3 m/S 754 mmHg 81%
    04:00 +28°C° 0 mm 3 m/S 754 mmHg 82%
    05:00 +28°C° 0 mm 3 m/S 754 mmHg 81%
    06:00 +28°C° 0 mm 3 m/S 754 mmHg 81%
    07:00 +28°C° 0 mm 3 m/S 755 mmHg 80%
    08:00 +29°C° 0 mm 3 m/S 755 mmHg 73%
    09:00 +31°C° 0 mm 3 m/S 755 mmHg 66%
    10:00 +32°C° 0 mm 2 m/S 755 mmHg 58%
    11:00 +34°C° 0 mm 3 m/S 754 mmHg 54%
    12:00 +36°C° 0 mm 4 m/S 754 mmHg 49%
    13:00 +37°C° 0 mm 5 m/S 753 mmHg 45%
    14:00 +36°C° 0 mm 5 m/S 753 mmHg 49%
    15:00 +35°C° 0 mm 6 m/S 752 mmHg 52%
    16:00 +34°C° 0 mm 7 m/S 752 mmHg 56%
    17:00 +33°C° 0 mm 6 m/S 752 mmHg 60%
    18:00 +32°C° 0 mm 5 m/S 752 mmHg 65%
    19:00 +29°C° 0 mm 4 m/S 753 mmHg 70%
    20:00 +29°C° 0 mm 4 m/S 753 mmHg 72%
    21:00 +29°C° 0 mm 4 m/S 754 mmHg 74%
    22:00 +29°C° 0 mm 4 m/S 755 mmHg 75%
    23:00 +28°C° 0 mm 3 m/S 754 mmHg 76%

    Morgen, 18 Februar, Montag

    Zeit Temperatur Niederschläge Wind Luftdruck Luftfeuchtigkeit
    00:00 +28°C° 0 mm 3 m/S 754 mmHg 77%
    01:00 +28°C° 0 mm 3 m/S 754 mmHg 78%
    02:00 +28°C° 0 mm 3 m/S 754 mmHg 79%
    03:00 +28°C° 0 mm 3 m/S 754 mmHg 79%
    04:00 +27°C° 0 mm 4 m/S 753 mmHg 80%
    05:00 +27°C° 0 mm 4 m/S 753 mmHg 80%
    06:00 +28°C° 0 mm 3 m/S 754 mmHg 80%
    07:00 +28°C° 0 mm 3 m/S 754 mmHg 80%
    08:00 +28°C° 0 mm 3 m/S 754 mmHg 75%
    09:00 +29°C° 0 mm 2 m/S 754 mmHg 70%
    10:00 +30°C° 0 mm 1 m/S 754 mmHg 65%
    11:00 +32°C° 0 mm 2 m/S 754 mmHg 60%
    12:00 +34°C° 0 mm 3 m/S 753 mmHg 54%
    13:00 +35°C° 0 mm 3 m/S 752 mmHg 49%
    14:00 +35°C° 0 mm 4 m/S 752 mmHg 50%
    15:00 +35°C° 0 mm 5 m/S 751 mmHg 51%
    16:00 +35°C° 0 mm 5 m/S 750 mmHg 53%
    17:00 +33°C° 0 mm 5 m/S 751 mmHg 58%
    18:00 +32°C° 0 mm 4 m/S 751 mmHg 63%
    19:00 +29°C° 0 mm 4 m/S 752 mmHg 69%
    20:00 +29°C° 0 mm 3 m/S 752 mmHg 70%
    21:00 +29°C° 0 mm 3 m/S 753 mmHg 71%
    22:00 +29°C° 0 mm 2 m/S 754 mmHg 71%
    23:00 +29°C° 0 mm 2 m/S 754 mmHg 72%

    übermorgen, 19 Februar, Dienstag

    Zeit Temperatur Niederschläge Wind Luftdruck Luftfeuchtigkeit
    00:00 +29°C° 0 mm 2 m/S 753 mmHg 73%
    01:00 +28°C° 0 mm 2 m/S 753 mmHg 73%
    02:00 +28°C° 0 mm 2 m/S 753 mmHg 74%
    03:00 +28°C° 0 mm 3 m/S 752 mmHg 75%
    04:00 +28°C° 0 mm 3 m/S 752 mmHg 75%
    05:00 +28°C° 0 mm 3 m/S 752 mmHg 76%
    06:00 +28°C° 0 mm 4 m/S 753 mmHg 77%
    07:00 +28°C° 0 mm 4 m/S 753 mmHg 78%
    08:00 +29°C° 0 mm 4 m/S 753 mmHg 72%
    09:00 +30°C° 0 mm 3 m/S 754 mmHg 67%
    10:00 +31°C° 0 mm 3 m/S 754 mmHg 61%
    11:00 +34°C° 0 mm 2 m/S 753 mmHg 53%
    12:00 +35°C° 0 mm 2 m/S 753 mmHg 46%
    13:00 +36°C° 0 mm 1 m/S 752 mmHg 38%
    14:00 +37°C° 0 mm 2 m/S 751 mmHg 41%
    15:00 +36°C° 0 mm 4 m/S 750 mmHg 44%
    16:00 +35°C° 0 mm 5 m/S 750 mmHg 47%
    17:00 +34°C° 0 mm 4 m/S 750 mmHg 55%
    18:00 +32°C° 0 mm 4 m/S 750 mmHg 62%
    19:00 +30°C° 0 mm 3 m/S 751 mmHg 69%
    20:00 +30°C° 0 mm 3 m/S 751 mmHg 70%
    21:00 +29°C° 0 mm 3 m/S 752 mmHg 70%
    22:00 +29°C° 0 mm 3 m/S 752 mmHg 71%
    23:00 +29°C° 0 mm 3 m/S 752 mmHg 72%

    20 Februar, Mittwoch

    Zeit Temperatur Niederschläge Wind Luftdruck Luftfeuchtigkeit
    00:00 +29°C° 0 mm 3 m/S 752 mmHg 73%
    01:00 +28°C° 0 mm 3 m/S 752 mmHg 74%
    02:00 +28°C° 0 mm 3 m/S 751 mmHg 74%
    03:00 +28°C° 0 mm 3 m/S 751 mmHg 75%
    04:00 +28°C° 0 mm 2 m/S 751 mmHg 75%
    05:00 +28°C° 0 mm 3 m/S 751 mmHg 75%
    06:00 +28°C° 0 mm 3 m/S 752 mmHg 75%
    07:00 +28°C° 0 mm 3 m/S 752 mmHg 75%
    08:00 +29°C° 0 mm 3 m/S 753 mmHg 69%
    09:00 +30°C° 0 mm 2 m/S 753 mmHg 63%
    10:00 +31°C° 0 mm 2 m/S 753 mmHg 57%
    11:00 +34°C° 0 mm 2 m/S 753 mmHg 52%
    12:00 +35°C° 0 mm 2 m/S 752 mmHg 46%
    13:00 +37°C° 0 mm 2 m/S 751 mmHg 41%
    14:00 +36°C° 0 mm 3 m/S 750 mmHg 45%
    15:00 +35°C° 0 mm 4 m/S 750 mmHg 49%
    16:00 +35°C° 0 mm 5 m/S 749 mmHg 53%
    17:00 +33°C° 0 mm 5 m/S 750 mmHg 60%
    18:00 +32°C° 0 mm 5 m/S 751 mmHg 66%
    19:00 +29°C° 0 mm 5 m/S 751 mmHg 73%
    20:00 +29°C° 0 mm 5 m/S 752 mmHg 74%
    21:00 +29°C° 0 mm 5 m/S 753 mmHg 74%
    22:00 +29°C° 0 mm 5 m/S 753 mmHg 75%
    23:00 +29°C° 0 mm 4 m/S 753 mmHg 76%

    21 Februar, Donnerstag

    Zeit Temperatur Niederschläge Wind Luftdruck Luftfeuchtigkeit
    00:00 +29°C° 0 mm 4 m/S 753 mmHg 77%
    01:00 +28°C° 0 mm 4 m/S 753 mmHg 78%
    02:00 +28°C° 0 mm 3 m/S 752 mmHg 79%
    03:00 +28°C° 0 mm 3 m/S 752 mmHg 79%
    04:00 +28°C° 0 mm 2 m/S 752 mmHg 80%
    05:00 +28°C° 0 mm 2 m/S 752 mmHg 80%
    06:00 +28°C° 0 mm 2 m/S 753 mmHg 79%
    07:00 +28°C° 0 mm 2 m/S 753 mmHg 79%
    08:00 +29°C° 0 mm 2 m/S 754 mmHg 72%
    09:00 +31°C° 0 mm 2 m/S 754 mmHg 65%
    10:00 +32°C° 0 mm 2 m/S 754 mmHg 58%
    11:00 +33°C° 0 mm 3 m/S 754 mmHg 56%
    12:00 +34°C° 0 mm 4 m/S 753 mmHg 54%
    13:00 +35°C° 0 mm 5 m/S 752 mmHg 52%
    14:00 +34°C° 0 mm 5 m/S 752 mmHg 54%
    15:00 +34°C° 0 mm 5 m/S 752 mmHg 55%
    16:00 +33°C° 0 mm 6 m/S 751 mmHg 56%
    17:00 +32°C° 0 mm 5 m/S 752 mmHg 61%
    18:00 +30°C° 0 mm 5 m/S 753 mmHg 67%
    19:00 +29°C° 0 mm 4 m/S 754 mmHg 72%
    20:00 +29°C° 0 mm 4 m/S 754 mmHg 73%
    21:00 +29°C° 0 mm 3 m/S 754 mmHg 74%
    22:00 +29°C° 0 mm 3 m/S 755 mmHg 75%
    23:00 +29°C° 0 mm 3 m/S 754 mmHg 75%

    22 Februar, Freitag

    Zeit Temperatur Niederschläge Wind Luftdruck Luftfeuchtigkeit
    00:00 +28°C° 0 mm 3 m/S 754 mmHg 76%
    01:00 +28°C° 0 mm 2 m/S 754 mmHg 76%
    02:00 +28°C° 0 mm 2 m/S 753 mmHg 77%
    03:00 +28°C° 0 mm 2 m/S 753 mmHg 78%
    04:00 +28°C° 0 mm 2 m/S 753 mmHg 79%
    05:00 +28°C° 0 mm 2 m/S 753 mmHg 80%
    06:00 +28°C° 0 mm 2 m/S 753 mmHg 80%
    07:00 +27°C° 0 mm 3 m/S 753 mmHg 80%
    08:00 +29°C° 0 mm 2 m/S 754 mmHg 71%
    09:00 +31°C° 0 mm 1 m/S 754 mmHg 61%
    10:00 +31°C° 0 mm 0 m/S 754 mmHg 51%
    11:00 +35°C° 0 mm 2 m/S 753 mmHg 48%
    12:00 +36°C° 0 mm 4 m/S 753 mmHg 46%
    13:00 +37°C° 0 mm 5 m/S 752 mmHg 44%
    14:00 +36°C° 0 mm 5 m/S 752 mmHg 47%
    15:00 +35°C° 0 mm 5 m/S 751 mmHg 50%
    16:00 +34°C° 0 mm 5 m/S 751 mmHg 54%
    17:00 +33°C° 0 mm 5 m/S 752 mmHg 59%
    18:00 +30°C° 0 mm 5 m/S 752 mmHg 65%
    19:00 +29°C° 0 mm 4 m/S 753 mmHg 71%
    20:00 +29°C° 0 mm 4 m/S 753 mmHg 73%
    21:00 +29°C° 0 mm 3 m/S 754 mmHg 75%
    22:00 +29°C° 0 mm 2 m/S 754 mmHg 76%
    23:00 +29°C° 0 mm 2 m/S 754 mmHg 77%
    Mehr zeigen